Regional Weather Roundup
Issued by NWS

Home | Current Version | Previous Version | Text Only | Print | Product List | Glossary On
Versions: 1 2 3 4 5 6 7 8 9 10 11 12 13 14 15 16 17 18 19 20 21 22 23 24 25 26 27 28 29 30 31 32 33 34 35 36 37 38 39 40 41 42 43 44 45 46 47 48 49 50
000
ASUS45 KBOU 260607
RWRCO

WEATHER ROUNDUP FOR COLORADO
NATIONAL WEATHER SERVICE DENVER/BOULDER CO
1200 AM MDT THU MAR 26 2015

NOTE: "FAIR" INDICATES FEW OR NO CLOUDS BELOW 12000 FEET WITH NO
SIGNIFICANT WEATHER AND/OR OBSTRUCTIONS TO VISIBILITY.

COZ001>005-013-030-031-260700-
...NORTHWEST COLORADO...

CITY           SKY/WX    TMP DP  RH WIND       PRES   REMARKS
CRAIG          FAIR      28  22  78 E3        30.34R
HAYDEN         FAIR      28  21  74 SW3       30.33R
MEEKER         FAIR      31  21  66 E6        30.35R WCI  25
MOUNT WERNER   NOT AVBL
STEAMBOAT SPGS FAIR      25  23  91 SE5       30.32S WCI  20
WALDEN         FAIR      23  19  86 S5        30.27S WCI  17
$$

COZ006>008-011-260700-
...WEST CENTRAL VALLEYS...

CITY           SKY/WX    TMP DP  RH WIND       PRES   REMARKS
GRAND JUNCTION FAIR      39  15  37 VRB3      30.30R
MONTROSE       FAIR      34  17  50 S9        30.35R WCI  27
EAGLE          FAIR      27  19  74 SE3       30.37R
RIFLE          FAIR      31  20  63 S3        30.35R
DELTA          FAIR      42  15  33 NE8       30.33R
NUCLA          FAIR      39  10  30 SE3       30.36R
$$

COZ017>023-064>068-260700-
...SOUTHWEST COLORADO...

CITY           SKY/WX    TMP DP  RH WIND       PRES   REMARKS
DURANGO        FAIR      31  13  47 N3        30.23R
CORTEZ         FAIR      38  11  32 N9        30.29R
PAGOSA SPRINGS FAIR      34   8  33 NE5       30.27S WCI  30
TELLURIDE      FAIR      28  13  54 SE3       30.35S
WOLF CREEK PAS FAIR      14   3  62 NE18      30.32S WCI  -3
$$

COZ009-010-012-014-032>034-037-058>063-260700-
...CENTRAL COLORADO...

CITY           SKY/WX    TMP DP  RH WIND       PRES   REMARKS
ASPEN          FAIR      26  17  68 S6        30.34R WCI  19
BUENA VISTA    FAIR      28  11  49 NW12      30.29S WCI  18
COPPER MTN     MOCLDY    18   9  68 W22       30.29F WCI   0
BERTHOUD PASS  LGT SNOW   9   1  72 MISG      30.24R
COTTONWOOD PAS FAIR      28  10  47 W8        30.29S WCI  20
GUNNISON       FAIR      28  16  59 CALM      30.35R
KREMMLING      FAIR      27  21  80 CALM      30.33R
LEADVILLE      FAIR      12   6  77 NE7       30.30S WCI   1
SALIDA         FAIR      27  22  84 CALM      30.37F
SUNLIGHT       FAIR      23  12  63 CALM      30.39R
WILKERSON PASS FAIR      14   9  79 NW13G18   30.26F WCI   0
$$

COZ069>075-260700-
...SAN LUIS VALLEY/SANGRE DE CRISTO MOUNTAINS...

CITY           SKY/WX    TMP DP  RH WIND       PRES   REMARKS
ALAMOSA        FAIR      21  14  74 W6        30.28S WCI  13
LA VETA PASS   FAIR      21  12  68 NW6       30.29R WCI  14
SAGUACHE       NOT AVBL
$$

COZ035-036-038>040-260700-
...NORTHERN COLORADO FRONT RANGE...

CITY           SKY/WX    TMP DP  RH WIND       PRES   REMARKS
DENVER INTL AP MOCLDY    32  29  88 S12       30.24F WCI  23
DMNS CITY PARK   N/A     35  29  78 S5        30.24F WCI  31
AURORA         NOT AVBL
FRONT RANGE AP FAIR      34  32  93 S6        30.25F WCI  29
ERIE MUNI ARPT FAIR      32  30  94 SW5       30.24F WCI  27
BOULDER MUN AP FAIR      34  32  93 CALM      30.23F
CENTENNIAL     FAIR      31  26  82 S7        30.24F WCI  24
BROOMFIELD     FAIR      32  30  93 SW7       30.24F WCI  26
FORT COLLINS   FAIR      30  28  93 S8        30.25S WCI  23
LONGMONT       FAIR      33  31  94 SW3       30.25F
$$

COZ041-046-047-076>085-087-088-260700-
...PIKES PEAK/PALMER DIVIDE AND SOUTHERN FOOTHILLS...

CITY           SKY/WX    TMP DP  RH WIND       PRES   REMARKS
COLO. SPRINGS  FAIR      28  22  78 N5        30.27F WCI  23
A. F. ACADEMY  FAIR      22  19  87 N6        30.26F WCI  15
ELLICOTT       FAIR     N/A N/A N/A CALM      30.27S
FALCON         FAIR      27  21  77 W6        30.27F WCI  21
FORT CARSON    FAIR      28  23  81 NW5       30.26F WCI  23
LIMON          FAIR      29  28  96 W7        30.26F WCI  22
MONUMENT HILL  FAIR      23  19  86 SW8       30.24F WCI  14
TRINIDAD       FAIR      29  25  85 W10       30.29F WCI  20
$$

COZ042>045-048>051-090-091-260700-
...NORTHEAST COLORADO...

CITY           SKY/WX    TMP DP  RH WIND       PRES   REMARKS
GREELEY ARPT   FAIR      30  25  80 N3        30.23F
AKRON          FAIR      31  29  92 W9        30.23F WCI  23
BURLINGTON     FAIR      29  25  85 W8        30.25F WCI  21
WRAY           CLOUDY    34  29  84 CALM      30.25F
STERLING       FAIR      32  28  86 NW8       30.23F WCI  25
HOLYOKE        FAIR      34  28  80 SW3       30.24F
FORT MORGAN    FAIR      32  31  94 NW7       30.25F WCI  26
$$

COZ086-089-092>099-260700-
...SOUTHEAST COLORADO...

CITY           SKY/WX    TMP DP  RH WIND       PRES   REMARKS
PUEBLO         FAIR      31  29  92 SW3       30.29S
LA JUNTA       FAIR      33  30  88 W10       30.29S WCI  25
LAMAR          FAIR      28  27  96 SW7       30.27S WCI  21
SPRINGFIELD      N/A     29  28  96 NW9       30.26F WCI  20
$$



USA.gov is the U.S. government's official web portal to all federal, state and local government web resources and services.